TimeCST,TemperatureF,Dew PointF,Humidity,Sea Level PressureIn,VisibilityMPH,Wind Direction,Wind SpeedMPH,Gust SpeedMPH,PrecipitationIn,Events,Conditions,WindDirDegrees,DateUTC
12:52 AM,-2.0,-4.0,91,30.17,10.0,SSW,4.6,-,N/A,,Overcast,210,2012-12-28 06:52:00
1:52 AM,-0.0,-2.9,88,30.15,10.0,SSW,6.9,-,N/A,,Overcast,210,2012-12-28 07:52:00
2:52 AM,-0.9,-2.9,91,30.14,10.0,Calm,Calm,-,N/A,,Overcast,0,2012-12-28 08:52:00
3:52 AM,-0.0,-2.9,88,30.15,10.0,SSW,4.6,-,N/A,,Overcast,200,2012-12-28 09:52:00
4:52 AM,-0.0,-2.9,88,30.14,9.0,SSW,5.8,-,N/A,,Overcast,210,2012-12-28 10:52:00
5:52 AM,-0.0,-2.9,88,30.14,10.0,SSW,5.8,-,N/A,,Overcast,200,2012-12-28 11:52:00
6:52 AM,1.0,-2.0,87,30.14,10.0,South,4.6,-,N/A,,Overcast,190,2012-12-28 12:52:00
7:52 AM,1.4,-2.2,85,29.97,10.0,South,4.6,-,N/A,,Overcast,190,2012-12-28 13:52:00
8:52 AM,1.9,-0.9,88,30.15,10.0,SSW,4.6,-,N/A,,Overcast,210,2012-12-28 14:52:00
9:52 AM,3.0,-0.0,87,30.17,4.0,SW,6.9,-,0.00,Snow,Light Snow,220,2012-12-28 15:52:00
10:52 AM,3.9,1.9,91,30.17,10.0,SSW,4.6,-,0.00,,Overcast,210,2012-12-28 16:52:00
11:38 AM,6.8,3.2,85,29.99,1.8,SSW,4.6,-,0.01,Snow,Light Snow,210,2012-12-28 17:38:00
11:44 AM,6.8,3.2,85,29.99,1.5,SW,4.6,-,0.01,Snow,Light Snow,220,2012-12-28 17:44:00
11:52 AM,7.0,3.0,84,30.15,3.0,SSW,4.6,-,0.01,Snow,Light Snow,210,2012-12-28 17:52:00
12:06 PM,6.8,3.2,85,29.99,7.0,SW,3.5,-,0.00,,Scattered Clouds,220,2012-12-28 18:06:00
12:52 PM,9.0,3.9,80,30.14,10.0,West,5.8,-,0.00,,Clear,270,2012-12-28 18:52:00
1:52 PM,9.0,3.0,77,30.13,10.0,West,6.9,-,N/A,,Clear,280,2012-12-28 19:52:00
2:52 PM,8.1,3.0,80,30.13,10.0,WNW,8.1,-,N/A,,Clear,300,2012-12-28 20:52:00
3:52 PM,6.1,-0.0,76,30.14,10.0,WNW,4.6,-,N/A,,Clear,290,2012-12-28 21:52:00
4:52 PM,1.9,-2.0,83,30.15,10.0,Calm,Calm,-,N/A,,Clear,0,2012-12-28 22:52:00
5:52 PM,-5.8,-7.6,92,30.00,10.0,Calm,Calm,-,N/A,,Clear,0,2012-12-28 23:52:00
6:52 PM,-5.8,-7.6,92,29.99,10.0,Calm,Calm,-,N/A,,Clear,0,2012-12-29 00:52:00
7:52 PM,-2.0,-4.0,91,30.14,10.0,SW,3.5,-,N/A,,Clear,230,2012-12-29 01:52:00
8:52 PM,-9.0,-11.0,91,30.14,9.0,Calm,Calm,-,N/A,,Clear,0,2012-12-29 02:52:00
9:52 PM,-6.0,-9.9,83,30.13,10.0,Calm,Calm,-,N/A,,Clear,0,2012-12-29 03:52:00
10:52 PM,-5.1,-7.1,91,30.12,9.0,Calm,Calm,-,N/A,,Clear,0,2012-12-29 04:52:00
11:52 PM,-8.0,-9.9,91,30.13,9.0,Calm,Calm,-,N/A,,Clear,0,2012-12-29 05:52:00